This demonstration page uses our WeatherBlox Daily Observations layout. Learn more.

41.55636, -103.73856

Hourly Observations for March 31, 2019

Temp ( °F °C ) Dew Point ( °F °C ) Humidity (%) Winds ( mph kmh ) Pressure ( in mb ) Visibility ( mi km ) Precip ( " mm )
12:53 am 00:53 Clear 27 -3 N/A N/A Calm 30.39 1029 10 16.09344 0 0
1:53 am 01:53 Clear 27 -3 N/A N/A Calm 30.39 1029 10 16.09344 0 0
2:53 am 02:53 Clear 25 -4 N/A N/A Calm 30.36 1028 9 14.484096 0 0
3:53 am 03:53 Clear 23 -5 N/A N/A N 5 7 30.36 1028 10 16.09344 0 0
4:53 am 04:53 Clear 23 -5 N/A N/A Calm 30.36 1028 10 16.09344 0 0
5:53 am 05:53 Clear 21 -6 N/A N/A Calm 30.36 1028 10 16.09344 0 0
6:53 am 06:53 Sunny 21 -6 N/A N/A NNW 3 6 30.39 1029 8 12.874752 0 0
7:53 am 07:53 Sunny 28 -2 N/A N/A WNW 5 7 30.39 1029 8 12.874752 0 0
8:53 am 08:53 Sunny 34 1 N/A N/A WNW 6 9 30.39 1029 10 16.09344 0 0
9:53 am 09:53 Sunny 39 4 N/A N/A WNW 7 11 30.36 1028 10 16.09344 0 0
10:53 am 10:53 Sunny 46 8 N/A N/A W 7 11 30.33 1027 10 16.09344 0 0
11:53 am 11:53 Sunny 48 9 N/A N/A SSW 6 9 30.3 1026 10 16.09344 0 0
12:53 pm 12:53 Sunny 52 11 N/A N/A undefined N/A 30.24 1024 10 16.09344 0 0
1:53 pm 13:53 Sunny 54 12 N/A N/A VRB 6 9 30.21 1023 10 16.09344 0 0
2:53 pm 14:53 Sunny 55 13 N/A N/A W 6 9 30.18 1022 10 16.09344 0 0
3:53 pm 15:53 Sunny 54 12 N/A N/A SSE 3 6 30.18 1022 10 16.09344 0 0
4:53 pm 16:53 Sunny 55 13 N/A N/A VRB 3 6 30.15 1021 10 16.09344 0 0
5:53 pm 17:53 Sunny 55 13 N/A N/A WSW 7 11 30.15 1021 10 16.09344 0 0
6:53 pm 18:53 Sunny 52 11 N/A N/A SW 5 7 30.15 1021 10 16.09344 0 0
7:53 pm 19:53 Clear 50 10 N/A N/A Calm 30.12 1020 10 16.09344 0 0
8:53 pm 20:53 Clear 45 7 N/A N/A S 5 7 30.15 1021 10 16.09344 0 0
9:53 pm 21:53 Clear 37 3 N/A N/A ESE 7 11 30.15 1021 10 16.09344 0 0
10:53 pm 22:53 Clear 34 1 N/A N/A E 7 11 30.12 1020 10 16.09344 0 0
11:53 pm 23:53 Clear 34 1 N/A N/A E 7 11 30.09 1019 10 16.09344 0 0

Powered by AerisWeather